Back to catalog

TOMORROW-S2

AliveWeatherSSO
NORAD 60485·PAYLOAD·🇺🇸 United States

Launched Aug 16, 2024 from Vandenberg Space Force Base

Loading…

Next Passes (next 24 hours)

TLE

FreshSource: Space-Track

Epoch: Sep 14, 2026, 04:19 UTC

1 60485U 24149T   26257.18025211  .00005946  00000-0  18374-3 0  9995
2 60485  97.3766 337.9930 0001765 352.6277   7.4939 15.33904236115722

Track TOMORROW-S2 in real time with AllMySat

Download on the App Store